Flag for Canada Weather past 2 weeks in Dieppe, New Brunswick, Canada

Now
37 °F

Partly sunny.


Feels Like: 31 °F
Forecast: 31 / 55 °F
Wind: 8 mph from Southwest

Location: Moncton

Current Time: Oct 21, 2014 at 10:46:57 AM

Latest Report: Oct 21, 2014 at 10:00 AM


Visibility: 15 mi

Pressure: 30.13 "Hg

Humidity: 75%

Dew point: 30 °F

Location of DieppeLocation

Historic Weather in Dieppe — Graph

°F

Dieppe temperature yesterday

Maximum temperature yesterday: 46 °F (at 1:00 PM)
Minimum temperature yesterday: 34 °F (at 10:00 PM)
Average temperature yesterday: 39 °F

Past Weeks' High & Low Weather Summary

 TemperatureHumidityPressure
High75 °F (Oct 15, 3:00 PM)100% (Oct 7, 8:00 AM)30.31 "Hg (Oct 7, 8:00 AM)
Low30 °F (Oct 21, 7:00 AM)39% (Oct 13, 2:00 PM)29.45 "Hg (Oct 19, 3:00 AM)
Average52 °F79%29.94 "Hg
* Reported Oct 6 9:00 AM — Oct 21 9:00 AM, Dieppe, Weather by CustomWeather, © 2014

Note: Actual official high and low records may vary slightly from our data, if they occured in-between our weather recording intervals... More about our weather records

Advertising

Dieppe weather history for previous 24 hours

 ConditionsComfort  
Time TempWeatherWind HumidityBarometerVisibility
9:00 AM
Oct 21
36 °FScattered clouds.8 mph75%30.10 "Hg15 mi
8:00 AM30 °FPassing clouds.7 mph86%30.09 "Hg15 mi
7:00 AM30 °FPassing clouds.8 mph86%30.06 "Hg15 mi
6:00 AM32 °FClear.7 mph80%30.04 "Hg15 mi
5:00 AM32 °FClear.8 mph80%30.01 "Hg15 mi
4:00 AM34 °FPassing clouds.8 mph75%29.99 "Hg15 mi
3:00 AM32 °FPassing clouds.8 mph87%29.98 "Hg15 mi
2:00 AM34 °FPassing clouds.9 mph81%29.97 "Hg15 mi
1:00 AM34 °FPassing clouds.10 mph81%29.96 "Hg15 mi
12:00 AM34 °FPassing clouds.9 mph81%29.93 "Hg15 mi
11:00 PM
Oct 20
34 °FPassing clouds.9 mph81%29.92 "Hg15 mi
10:00 PM34 °FPassing clouds.8 mph81%29.91 "Hg15 mi
9:00 PM36 °FPassing clouds.7 mph75%29.88 "Hg15 mi
8:00 PM37 °FPassing clouds.9 mph65%29.87 "Hg15 mi
7:00 PM41 °FScattered clouds.15 mph57%29.85 "Hg15 mi
6:00 PM43 °FScattered clouds.14 mph53%29.81 "Hg15 mi
5:00 PM45 °FScattered clouds.18 mph49%29.79 "Hg15 mi
4:00 PM45 °FPartly sunny.23 mph53%29.77 "Hg15 mi
3:00 PM45 °FPartly sunny.23 mph53%29.74 "Hg15 mi
2:00 PM45 °FPartly sunny.24 mph49%29.74 "Hg15 mi
1:00 PM46 °FScattered clouds.20 mph50%29.73 "Hg15 mi
12:00 PM43 °FScattered clouds.23 mph57%29.73 "Hg15 mi
11:00 AM41 °FPartly sunny.24 mph61%29.73 "Hg15 mi
10:00 AM39 °FPartly sunny.22 mph70%29.72 "Hg15 mi
Weather by CustomWeather, © 2014

See weather overviewHow to use our weather pages